Weather History for Sitka, AK

Change the Weather History Date:

Monday, January 13, 2014

  Actual Average Record
Temperature  
Mean Temperature 42 °F -  
Max Temperature 48 °F 36 °F 53 °F (1981)
Min Temperature 37 °F 28 °F 8 °F (1974)
Degree Days  
Heating Degree Days 22    
Moisture  
Dew Point 38 °F    
Average Humidity 85    
Maximum Humidity 93    
Minimum Humidity 73    
Precipitation  
Precipitation 1.48 in - - ()
Sea Level Pressure  
Sea Level Pressure 29.82 in    
Wind  
Wind Speed 17 mph (South)    
Max Wind Speed 31 mph    
Max Gust Speed 45 mph    
Visibility 6 miles    
Events Rain    
Averages and records for this station are not official NWS values.
T = Trace of Precipitation, MM = Missing Value Source: NWS Daily Summary

Daily Weather History Graph

Daily Weather History Graph

Search for Another Location

Airport:

Trip Planner

Search our weather history database for the weather conditions in past years. The results will help you decide how hot, cold, wet, or windy it might be!

Date:

Astronomy

Jan. 13, 2014 Rise Set
Actual Time 8:30 AM AKST 3:50 PM AKST
Civil Twilight 7:44 AM AKST 4:36 PM AKST
Nautical Twilight 6:55 AM AKST 5:26 PM AKST
Astronomical Twilight 6:08 AM AKST 6:12 PM AKST
Moon 2:15 PM AKST (1/13) 6:21 AM AKST (1/13)
Length of Visible Light 8h 52m
Length of Day
7h 19m
Waxing Gibbous, 95% of the Moon is Illuminated
Jan 13
Waxing Gibbous
Jan 15
Full
Jan 23
Last Quarter
Jan 30
New
Feb 6
First Quarter

Hourly Weather History & Observations

Time (AKST) Temp. Windchill Dew Point Humidity Pressure Visibility Wind Dir Wind Speed Gust Speed Precip Events Conditions
12:07 AM 39.9 °F 30.0 °F 35.1 °F 83% 29.61 in 7.0 mi West 21.9 mph 26.5 mph 0.01 in Rain Light Rain
12:25 AM 39.9 °F 32.1 °F 35.1 °F 83% 29.63 in 10.0 mi West 13.8 mph - 0.01 in   Overcast
12:53 AM 41.0 °F 31.6 °F 34.0 °F 76% 29.66 in 10.0 mi West 20.7 mph - 0.02 in   Mostly Cloudy
1:53 AM 42.1 °F 32.6 °F 34.0 °F 73% 29.71 in 9.0 mi WSW 23.0 mph 29.9 mph N/A   Overcast
2:53 AM 41.0 °F 32.2 °F 33.1 °F 73% 29.76 in 10.0 mi West 18.4 mph - 0.01 in   Overcast
3:47 AM 37.4 °F 26.6 °F 35.6 °F 93% 29.81 in 3.0 mi WNW 21.9 mph 39.1 mph 0.02 in Rain Heavy Rain
3:53 AM 39.0 °F 30.3 °F 35.1 °F 86% 29.81 in 5.0 mi WNW 16.1 mph - 0.02 in Rain Heavy Rain
4:04 AM 39.0 °F 30.6 °F 36.0 °F 89% 29.82 in 10.0 mi West 15.0 mph - 0.00 in Rain Light Rain
4:23 AM 39.9 °F 32.5 °F 36.0 °F 86% 29.83 in 10.0 mi West 12.7 mph - 0.00 in   Overcast
4:34 AM 39.9 °F 32.1 °F 36.0 °F 86% 29.83 in 10.0 mi West 13.8 mph - 0.00 in   Overcast
4:53 AM 41.0 °F 33.1 °F 36.0 °F 82% 29.84 in 10.0 mi West 15.0 mph - 0.00 in   Overcast
5:53 AM 42.1 °F 35.2 °F 36.0 °F 79% 29.86 in 9.0 mi West 12.7 mph - N/A   Mostly Cloudy
6:33 AM 42.1 °F 36.1 °F 37.0 °F 82% 29.88 in 8.0 mi South 10.4 mph - N/A   Overcast
6:46 AM 41.0 °F 34.7 °F 37.9 °F 89% 29.88 in 7.0 mi South 10.4 mph - N/A   Overcast
6:53 AM 41.0 °F 35.8 °F 37.9 °F 89% 29.89 in 7.0 mi South 8.1 mph - N/A   Overcast
7:07 AM 41.0 °F 33.5 °F 37.9 °F 89% 29.89 in 8.0 mi South 13.8 mph - N/A   Overcast
7:29 AM 41.0 °F 35.2 °F 37.9 °F 89% 29.90 in 7.0 mi South 9.2 mph - N/A   Mostly Cloudy
7:38 AM 41.0 °F 35.2 °F 37.9 °F 89% 29.90 in 6.0 mi South 9.2 mph - 0.00 in Rain Light Rain
7:53 AM 41.0 °F 35.2 °F 37.9 °F 89% 29.91 in 6.0 mi South 9.2 mph - 0.00 in Rain Light Rain
8:53 AM 43.0 °F 37.2 °F 37.0 °F 80% 29.95 in 7.0 mi SW 10.4 mph - 0.01 in   Overcast
9:00 AM 43.0 °F 36.8 °F 37.9 °F 82% 29.95 in 7.0 mi SW 11.5 mph - N/A   Overcast
9:53 AM 42.1 °F 36.6 °F 39.0 °F 89% 29.98 in 10.0 mi South 9.2 mph - N/A   Overcast
10:53 AM 43.0 °F 39.5 °F 37.9 °F 82% 30.00 in 10.0 mi South 5.8 mph - N/A   Overcast
11:53 AM 42.1 °F 37.7 °F 37.9 °F 85% 30.01 in 9.0 mi ESE 6.9 mph - N/A   Overcast
12:11 PM 42.1 °F 36.1 °F 39.0 °F 89% 30.01 in 7.0 mi South 10.4 mph - 0.02 in Rain Light Rain
12:53 PM 42.1 °F 34.9 °F 39.0 °F 89% 30.03 in 8.0 mi South 13.8 mph - 0.02 in   Overcast
1:10 PM 42.1 °F 36.1 °F 39.0 °F 89% 30.02 in 7.0 mi South 10.4 mph - N/A   Overcast
1:53 PM 42.1 °F 37.7 °F 37.0 °F 82% 30.01 in 10.0 mi ESE 6.9 mph - N/A   Overcast
2:44 PM 41.0 °F 33.9 °F 36.0 °F 82% 29.99 in 6.0 mi ESE 12.7 mph - 0.01 in Rain Light Rain
2:53 PM 41.0 °F 34.3 °F 36.0 °F 82% 29.99 in 6.0 mi SE 11.5 mph - 0.01 in Rain Light Rain
3:53 PM 39.0 °F 31.4 °F 36.0 °F 89% 29.96 in 6.0 mi ESE 12.7 mph - 0.07 in Rain Rain
4:53 PM 39.0 °F 30.3 °F 35.1 °F 86% 29.88 in 7.0 mi ESE 16.1 mph - 0.07 in Rain Light Rain
5:53 PM 39.9 °F 30.5 °F 36.0 °F 86% 29.81 in 5.0 mi SE 19.6 mph 26.5 mph 0.04 in Rain Light Rain
6:53 PM 39.9 °F 28.6 °F 36.0 °F 86% 29.76 in 5.0 mi East 28.8 mph 36.8 mph 0.11 in Rain Rain
7:53 PM 43.0 °F 32.9 °F 37.0 °F 80% 29.70 in 6.0 mi ESE 27.6 mph 41.4 mph 0.12 in Rain Rain
8:45 PM 45.0 °F 36.4 °F 39.0 °F 80% 29.69 in 4.0 mi ESE 23.0 mph 32.2 mph 0.10 in Rain Rain
8:53 PM 45.0 °F 37.1 °F 39.0 °F 80% 29.69 in 4.0 mi ESE 19.6 mph 33.4 mph 0.12 in Rain Rain
9:53 PM 46.9 °F - 42.1 °F 83% 29.68 in 4.0 mi SE 13.8 mph 25.3 mph 0.22 in Rain Heavy Rain
10:27 PM 48.0 °F - 45.0 °F 89% 29.67 in 1.8 mi SSE 29.9 mph 44.9 mph 0.17 in Rain Heavy Rain
10:38 PM 48.0 °F - 45.0 °F 89% 29.67 in 2.5 mi SSE 25.3 mph 41.4 mph 0.24 in Rain Heavy Rain
10:53 PM 48.0 °F - 45.0 °F 89% 29.67 in 3.0 mi South 19.6 mph 38.0 mph 0.30 in Rain Rain
11:01 PM 48.0 °F - 45.0 °F 89% 29.67 in 2.0 mi South 21.9 mph 39.1 mph 0.04 in Rain Rain
11:03 PM 48.0 °F - 46.0 °F 93% 29.67 in 1.8 mi South 19.6 mph 39.1 mph 0.05 in Rain Rain
11:11 PM 48.0 °F - 45.0 °F 89% 29.67 in 2.0 mi South 25.3 mph 38.0 mph 0.09 in Rain Heavy Rain
11:18 PM 48.0 °F - 45.0 °F 89% 29.66 in 2.0 mi South 24.2 mph 34.5 mph 0.13 in Rain Heavy Rain
11:34 PM 48.0 °F - 45.0 °F 89% 29.66 in 2.0 mi South 25.3 mph 38.0 mph 0.23 in Rain Heavy Rain
11:53 PM 48.0 °F - 45.0 °F 89% 29.65 in 2.5 mi SSE 31.1 mph 41.4 mph 0.34 in Rain Heavy Rain